CZ-6A DEB, 60886

Orbit data source: Space-Track

CZ-6A DEB, 60886 is space debris in LEO originally from a launch on Tue, 06 Aug 2024 UTC launched from the Taiyaun Space Center, China (TSC). Debris objects in space refer to the collection of defunct objects orbiting the Earth. Examples of debris include non-operational satellites, rocket bodies, and fragments generated from explosions, collisions, or faulty payload assembly.

Loading next visibility...
Identifier
60886, 2024-140KR
Orbit
LEO
Country
Flag of CNCN / PRC
Related business
Manufacturer
SAST
Mission
Spacecraft
Bus & Motor
Unknown
Mass
Unknown
Launch date (UTC)
2024-08-06 (2 years ago)
Launch vehicle
Unknown
Launch site
Taiyaun Space Center, China (TSC)
Object type
Payload
Rocket body
Debris
Shape & HBR
Unknown shape, 0.1 m
Radar Cross Section
Medium (>0.1 m² and <1 m²)

Expand to show TLE details & history
Last TLE update: 17 hours ago

TLE from 17 hours ago
0 CZ-6A DEB
1 60886U 24140KR  26171.26822483  .00000868  00000-0  41702-3 0  9990
2 60886  89.0128 275.6640 0060739 178.9469 181.1859 14.17056038 94851
Epoch: 2026-06-20T06:26Z
TLE epoch observation values (Epoch: 2026-06-20T06:26:14.625Z)
Latitude
Longitude
-89.38222°
Altitude
882.189 km
Speed
7.389 km/s
True Right ascension
18h 22m 39s
True Declination
0° 00' 00"
Sunlit
Object was in full shadow at epoch
Visualization orbit readout
Latitude
Unknown
Longitude
Unknown
Altitude
Unknown
Speed
Unknown
Apparent Right ascension
Unknown
Apparent Declination
Unknown
Sunlit
N/A
Visualization observer readout
Local Sidereal Time
10:19:00
Azimuth
Unknown
Elevation
Unknown
Doppler factor
Unknown
Orbital elements
Apogee altitude
876.077 km
Perigee altitude
788.486 km
Semi-major axis
7,210.418 km
Eccentricity
0.00607
Inclination
89.0128°
RAAN
275.664°
Arg. of periapsis
178.9469°
True anomaly
181.1716°
Mean anomaly
181.1859°
Eccentric anomaly
181.17874°
Mean motion
3.54489 °/min
Orbital period
101.55 mins
BSTAR
0.00041702
Loading maneuver chart data...
Computing Atmospheric mass density...
Loading historical data...
Loading historical data...
Loading historical data...
Loading historical data...
Loading historical data...
Loading historical data...
Loading historical data...

Documentation

Showing up to 5 results
|